Terminal Aerodrome Forecast
Issued by NWS Norman, OK

Home | Current Version | Previous Version | Text Only | Print | Product List | Glossary On
Versions: 1 2 3 4 5 6 7 8 9 10 11 12 13 14 15 16 17 18 19 20 21 22 23 24 25 26 27 28 29 30
000
FTUS44 KOUN 032342
TAFOKC
TAF
KOKC 032342Z 0400/0424 35006KT P6SM OVC100
     FM040200 02012KT 4SM BR OVC010
     FM040700 02015G23KT 3SM BR OVC005
      TEMPO 0407/0411 1SM -RA BR OVC003
     FM041100 01020G28KT 2SM -FZRA BR OVC004
     FM041400 01020G28KT 2SM PL OVC004
     FM042200 01018G27KT 1SM -SN OVC003=

USA.gov is the U.S. government's official web portal to all federal, state and local government web resources and services.